RH
79 81 82 82 83 83 82 85 87 88 91 95 94 96 96 95 94 93 93 92 91 90 90 91 89 84 82 84 80 78 76 72 73 73 66 62 60 57 57 55 51 46 41 39 40 40 40 41 40 41 42 43 45 45 46 45 44 46 48 49 48 48 49 48 48 48 48 47 45 44 43 43 45 45 46 46 47 48 48 49 50 51 53 54 54 55 55 54 53 52 51 49 48 46 45 44 44
79 80 81 80 80 83 84 85 88 89 91 94 94 94 95 95 94 93 95 92 88 86 87 88 85 83 82 82 81 79 79 77 73 71 68 64 62 60 58 54 48 43 40 39 39 40 40 40 39 39 41 42 42 41 42 42 42 43 44 44 43 44 44 44 43 43 44 43 42 41 41 41 41 42 42 43 44 45 46 46 47 48 48 49 50 51 51 51 52 52 52 52 51 49 47 45 43
78 77 78 77 79 81 82 83 86 87 89 91 89 90 91 94 92 90 92 91 88 86 87 85 84 85 85 84 83 81 81 81 76 71 70 66 63 63 60 54 46 42 40 40 41 42 42 40 40 39 40 41 40 40 40 40 40 40 40 40 40 39 39 39 38 39 39 39 39 38 39 39 39 39 40 40 40 41 41 42 43 43 44 44 44 45 45 45 46 46 47 48 49 49 48 46 43
77 76 76 77 78 81 81 83 85 85 88 87 87 88 88 90 90 88 89 88 88 87 85 83 84 87 85 84 83 81 81 82 78 71 69 68 63 61 59 52 44 41 41 45 46 45 43 41 40 40 39 39 39 39 38 39 39 39 39 39 39 38 38 38 38 38 37 38 37 37 37 38 38 39 39 39 39 40 40 40 40 41 41 41 42 42 42 43 43 43 43 44 44 45 46 46 45
77 75 76 76 78 79 80 82 83 84 85 85 89 90 84 85 87 87 88 86 87 87 84 82 85 85 83 83 81 79 80 78 73 68 69 71 66 60 56 49 43 42 45 46 45 42 40 39 39 39 38 38 38 38 38 38 38 38 38 38 38 38 38 38 38 38 38 38 37 37 37 38 38 38 39 39 40 40 40 41 41 41 41 42 41 42 42 42 42 42 42 42 42 43 43 44 44
75 73 72 72 74 74 75 79 81 82 83 83 87 88 85 84 83 84 85 82 83 84 82 81 82 81 81 81 79 79 76 71 70 68 69 70 66 59 52 46 44 45 45 43 41 39 39 39 38 37 37 37 37 37 37 37 37 38 37 37 37 37 37 37 37 38 38 38 37 38 38 38 39 40 40 40 40 40 41 41 42 42 42 42 43 43 42 42 42 42 41 42 42 42 42 43 43
71 69 69 70 71 71 74 77 78 80 80 81 84 83 83 82 79 80 81 77 78 80 80 78 77 79 80 77 76 75 71 68 68 68 68 66 63 59 52 47 47 48 45 43 41 40 40 40 38 36 36 36 37 37 37 37 37 37 37 37 37 37 37 37 37 37 38 38 38 38 39 39 39 40 41 41 41 42 42 42 43 44 44 44 44 43 43 43 42 42 42 41 41 41 41 41 41
68 66 64 66 67 69 72 73 74 76 77 79 80 79 78 77 75 78 78 76 78 78 77 76 75 77 76 73 73 71 67 67 66 66 65 64 65 62 54 51 50 49 47 46 43 41 41 40 38 36 36 36 36 36 37 37 37 37 37 37 37 38 38 39 39 39 40 40 40 40 40 41 41 42 43 44 44 45 46 47 48 48 48 48 48 47 46 45 44 43 42 42 42 42 40 40 40
69 65 60 58 60 65 69 70 70 71 73 74 74 74 75 75 74 76 78 77 77 75 74 72 72 73 73 70 69 67 66 67 66 66 64 65 69 67 63 59 54 51 48 48 45 43 41 40 38 37 36 36 36 36 37 37 37 38 39 40 40 42 43 44 44 45 45 44 44 44 44 44 45 46 47 49 50 52 53 54 54 53 53 53 53 52 51 49 48 46 44 44 43 43 42 41 40
68 62 58 57 57 62 68 70 69 68 69 69 70 72 72 73 75 77 77 78 76 74 72 69 71 72 70 70 68 67 67 66 66 67 67 68 69 67 68 66 60 56 53 50 48 44 43 41 40 39 38 36 36 37 37 38 40 41 43 44 46 47 48 49 49 50 51 51 52 52 52 53 54 55 56 57 58 62 64 66 67 66 66 66 64 63 62 60 58 57 54 52 50 48 47 46 45
66 61 57 60 58 61 67 69 70 69 68 67 67 68 67 69 72 75 75 76 75 73 73 70 73 71 69 71 70 68 67 67 66 68 72 72 71 70 68 66 62 60 58 53 50 48 45 43 42 41 39 38 37 37 39 41 43 45 46 48 48 49 49 50 52 53 55 56 59 61 63 65 66 66 65 65 68 73 76 78 81 81 79 79 78 76 75 74 73 70 67 66 64 61 57 55 52
65 62 59 63 59 59 65 68 69 69 68 67 66 64 63 64 66 71 73 73 72 72 72 71 72 70 72 72 69 69 69 69 67 70 74 73 76 76 71 69 68 66 63 57 53 52 49 46 45 43 41 40 40 41 42 44 46 48 49 50 50 52 54 57 59 61 63 66 68 70 71 71 70 69 70 73 77 81 82 84 86 85 84 85 83 82 81 80 80 79 78 77 76 74 70 67 62
62 60 58 61 56 57 64 67 68 68 68 66 63 61 62 62 63 65 68 69 68 70 70 70 69 69 74 73 70 71 71 71 71 73 72 71 75 78 77 74 73 70 68 65 61 58 54 51 48 44 43 43 44 46 47 49 51 52 53 54 57 61 65 68 69 70 72 73 74 75 75 74 72 73 76 79 82 84 85 85 86 85 86 87 86 86 85 85 85 84 85 84 84 84 82 78 75
58 56 54 56 53 54 60 66 68 67 67 65 61 58 60 60 61 61 62 64 64 65 65 64 64 67 73 73 71 72 72 72 74 75 72 70 74 76 79 77 72 70 73 73 71 68 64 59 54 51 49 48 51 53 56 56 59 61 62 64 66 70 71 72 72 73 73 74 76 78 79 79 78 78 78 82 83 83 84 84 83 83 84 84 85 88 89 90 91 90 88 86 88 89 89 86 82
55 52 49 53 51 50 55 61 64 64 64 63 59 57 57 56 57 58 57 59 59 59 60 60 60 64 68 69 69 69 71 73 73 74 71 70 72 72 74 73 72 74 76 76 76 74 72 68 65 64 62 62 64 65 66 66 69 71 70 70 70 70 69 68 68 70 72 75 79 81 82 82 81 81 79 81 81 80 81 79 78 79 78 78 80 84 86 87 89 90 91 90 91 91 91 90 87
52 48 48 50 47 47 51 54 58 63 63 61 58 54 54 52 54 55 53 56 59 59 59 59 59 62 65 65 65 65 70 74 72 70 69 71 72 69 69 70 71 74 76 74 74 73 71 72 71 70 70 71 72 73 73 71 73 74 73 72 70 67 66 66 67 70 72 76 79 80 81 81 81 80 80 81 80 80 79 76 77 75 71 71 73 77 81 83 85 87 90 92 92 91 91 91 90
48 45 43 44 43 44 47 50 54 58 59 59 58 54 52 49 49 50 51 55 59 60 59 60 60 61 63 64 62 63 68 71 70 67 68 71 70 68 68 69 69 70 72 71 73 72 69 71 71 70 72 72 72 73 73 73 73 74 73 71 68 66 67 68 70 72 73 76 78 78 79 78 78 78 77 79 80 79 78 76 77 71 64 64 66 69 73 78 81 83 86 88 91 90 89 90 89
48 43 38 40 43 44 45 47 49 51 53 56 58 56 51 47 46 47 49 54 57 58 58 58 58 57 59 61 61 62 65 67 66 66 68 68 67 67 67 66 66 67 68 69 71 71 69 71 72 72 72 70 71 72 73 72 72 72 70 67 65 67 69 71 71 72 73 74 75 76 76 75 74 74 73 74 73 71 72 73 74 67 62 63 62 64 66 70 76 79 82 85 89 89 88 90 90
46 38 34 38 42 42 42 43 45 46 46 48 53 54 51 47 46 47 49 53 55 57 56 55 55 55 55 57 59 61 62 63 63 64 66 66 64 63 64 65 65 65 65 64 66 66 67 69 70 72 72 69 70 71 71 70 68 69 67 65 66 67 68 69 70 72 73 72 71 72 72 71 70 70 68 68 66 63 63 66 66 62 61 64 63 63 64 66 70 74 78 81 84 85 85 86 85
42 36 36 37 39 40 40 41 43 44 42 43 47 49 48 48 47 47 49 52 53 56 56 54 55 54 53 54 55 57 59 59 61 63 63 63 62 61 63 64 63 63 62 61 62 64 65 66 67 70 71 69 68 66 68 68 66 65 65 65 66 65 65 68 68 70 71 69 67 67 66 65 64 64 63 62 61 60 59 59 60 60 60 61 62 62 63 64 64 67 71 75 78 78 79 77 75
38 36 37 36 38 41 42 41 43 45 44 43 44 44 44 44 46 48 49 51 52 54 52 50 52 50 50 53 53 53 55 56 59 61 59 58 56 56 57 57 57 59 60 61 62 63 64 64 65 67 68 67 64 64 67 68 64 62 64 65 65 64 66 67 67 67 67 65 64 63 61 60 59 58 58 58 58 58 59 60 61 61 60 59 60 61 61 62 62 63 66 68 70 71 71 70 69
37 35 35 37 39 42 42 42 42 44 46 46 45 44 43 41 44 48 48 49 49 49 48 46 47 48 49 50 51 52 52 53 56 56 54 52 50 49 50 51 53 55 57 58 59 60 61 61 61 62 64 63 62 64 67 68 64 62 63 64 64 65 65 64 63 62 61 60 59 58 57 57 56 55 56 56 57 58 59 60 61 60 60 61 61 60 58 57 57 57 57 58 59 59 59 60 63
37 35 36 38 40 42 43 42 42 45 48 47 46 44 43 42 43 45 46 45 43 44 45 46 47 48 49 49 49 51 51 51 52 50 50 50 48 48 51 52 53 54 54 55 55 56 57 57 57 59 62 61 61 64 66 67 64 62 63 63 64 63 61 60 59 58 57 55 54 54 54 55 55 56 57 56 57 59 59 59 58 58 58 59 57 55 50 47 47 47 47 50 51 50 50 51 53
37 37 36 37 38 41 42 40 41 45 47 47 46 45 42 43 42 42 45 43 42 46 46 46 48 50 51 51 50 49 48 48 48 48 49 49 49 50 52 53 54 55 55 55 55 56 55 55 55 56 59 59 60 62 64 64 62 61 63 62 62 62 60 58 57 56 54 52 51 50 50 49 49 54 57 58 59 59 60 60 60 59 57 56 52 46 40 38 40 43 46 48 48 48 49 49 48
38 38 38 38 39 40 41 40 41 44 46 45 45 44 43 44 42 40 44 45 44 47 48 48 49 50 51 50 50 49 48 47 47 48 49 50 50 50 50 51 52 52 52 52 53 55 54 55 55 56 57 58 58 59 61 62 60 62 63 61 63 64 62 59 56 53 51 49 47 45 44 45 46 50 53 56 57 57 59 60 60 60 59 57 50 42 39 39 41 44 46 47 47 47 47 48 46
39 38 40 42 42 41 40 40 41 42 42 43 44 44 44 46 44 43 44 46 46 46 49 50 50 50 49 49 48 49 48 48 48 48 51 52 52 51 49 49 49 49 49 49 51 53 53 52 53 55 57 57 58 59 60 60 61 63 63 61 62 62 60 59 55 50 47 46 46 45 47 49 49 49 50 51 51 51 52 53 55 56 57 55 49 44 44 45 46 47 47 47 46 45 43 41 39
39 40 43 44 44 43 42 42 41 39 39 40 45 47 46 45 47 48 46 45 46 47 49 49 50 50 48 47 47 48 49 49 49 50 52 53 52 51 50 50 49 50 50 49 51 54 54 52 52 53 55 56 59 60 58 58 61 62 62 62 62 60 58 57 55 51 49 48 50 51 52 52 51 49 48 46 46 45 45 46 46 47 48 46 45 46 50 52 52 52 50 49 46 42 37 35 34
42 44 47 46 45 44 45 48 45 41 38 38 44 48 46 45 47 49 47 45 46 48 49 48 48 49 47 47 47 47 48 49 49 50 51 51 49 50 49 50 51 51 52 51 52 54 55 55 54 54 55 56 59 60 58 59 61 62 62 62 61 60 58 57 57 56 54 55 55 54 53 53 51 49 47 46 46 45 43 42 41 42 42 41 41 44 48 52 53 53 52 48 43 39 36 35 37
45 46 47 46 45 46 47 49 48 43 40 37 41 45 45 45 47 48 47 45 45 47 49 48 47 47 47 46 45 46 47 47 48 48 49 48 48 49 49 51 52 53 54 53 53 53 54 56 56 57 57 57 58 60 60 61 63 63 63 61 59 59 59 59 60 58 57 58 57 55 53 51 50 48 48 48 47 46 45 43 42 42 42 42 42 43 46 48 47 46 44 40 37 37 40 40 41
46 47 47 46 47 49 49 48 48 45 43 40 40 44 46 47 48 47 46 47 47 49 49 48 48 47 48 47 45 45 45 45 48 48 49 48 48 49 50 52 54 54 54 54 54 54 55 58 59 59 60 59 59 60 60 63 64 64 64 62 60 59 61 61 60 59 59 59 58 56 54 51 51 50 49 48 46 46 45 44 44 43 43 44 44 45 46 46 43 40 36 34 36 40 41 41 41
46 48 50 50 47 47 47 46 47 47 46 43 43 48 50 49 48 46 48 51 50 50 49 49 50 48 47 47 46 45 45 45 47 50 51 50 50 50 52 54 57 57 55 53 54 55 56 58 59 61 62 63 62 62 61 62 64 66 66 64 63 63 63 63 61 61 61 60 60 58 54 52 50 49 48 46 45 44 44 45 45 43 43 43 44 47 48 47 42 38 35 35 40 41 39 38 39
46 48 49 49 46 44 45 44 46 46 45 43 43 49 52 48 47 47 50 51 49 48 49 50 50 50 48 47 47 46 46 47 49 50 51 51 51 51 53 55 59 60 56 53 53 56 58 58 59 61 63 64 64 64 63 63 64 67 68 68 68 67 66 65 64 63 62 62 62 59 55 52 50 49 48 47 47 46 46 46 45 44 43 42 45 49 50 48 44 42 39 39 43 40 35 34 35
45 47 47 46 45 45 45 43 44 43 43 44 43 47 50 47 45 47 49 51 49 46 48 51 51 50 48 49 49 46 47 50 51 51 51 51 51 51 52 54 57 59 57 55 54 57 62 61 60 62 63 65 65 65 65 65 65 66 67 68 69 68 68 68 67 65 64 62 60 56 54 52 52 51 50 50 50 50 50 49 46 45 43 44 48 50 50 49 47 44 41 40 41 37 33 32 30
43 43 44 42 42 44 44 43 44 43 43 44 44 45 46 45 43 43 48 52 51 49 50 53 51 48 49 50 49 48 49 52 51 50 52 54 53 54 56 56 56 57 58 58 57 58 63 64 63 65 66 67 67 68 69 68 67 67 67 68 69 69 69 69 67 65 62 60 58 57 57 56 56 54 53 53 53 53 53 52 48 44 43 46 49 49 48 48 46 45 40 36 37 35 33 30 29
41 39 39 38 38 41 41 40 42 42 42 43 46 45 43 44 42 42 48 52 53 52 53 54 50 45 48 51 50 48 49 51 51 51 54 56 57 59 60 58 57 57 58 60 60 60 64 66 65 68 70 69 69 71 71 70 69 69 70 69 70 70 69 69 67 64 62 62 62 61 61 60 59 57 55 55 54 53 51 49 46 43 44 48 48 45 43 42 41 39 36 33 34 34 33 32 31
39 38 37 35 35 38 39 38 38 40 41 42 44 44 43 44 42 43 48 50 52 54 56 55 48 43 45 48 49 50 50 51 50 50 54 57 59 61 60 59 59 58 59 62 63 62 64 67 67 69 71 71 71 71 70 70 70 70 71 71 72 71 70 69 67 66 66 66 65 64 62 60 58 56 55 55 52 49 45 43 42 41 45 47 44 42 39 36 33 31 31 32 34 35 34 34 33
38 37 36 32 31 35 36 36 37 38 41 42 42 41 43 43 42 44 47 51 53 53 56 56 47 45 47 46 49 51 50 49 46 46 53 58 58 57 57 60 61 60 61 63 63 63 65 66 66 68 71 71 69 67 68 70 70 70 72 73 74 73 70 67 66 66 65 64 64 63 62 60 58 56 55 54 50 45 41 39 38 39 42 41 38 36 32 29 29 28 29 29 32 35 36 37 36
34 35 33 29 29 31 31 33 37 39 39 40 41 42 43 42 43 45 48 53 55 52 54 54 48 49 51 49 50 47 43 44 45 45 49 53 51 49 53 58 59 61 64 65 64 65 65 64 64 66 70 70 66 66 69 71 71 70 71 74 74 72 69 66 65 64 64 63 62 60 60 58 56 55 54 51 46 41 36 33 34 35 36 34 30 28 25 25 26 27 28 25 27 31 34 36 35
30 32 30 28 28 28 29 33 37 38 39 39 40 42 44 45 45 46 51 57 57 53 53 52 49 52 52 49 48 46 43 44 45 44 46 49 48 47 51 56 58 62 66 67 66 65 64 63 62 63 66 68 68 68 72 73 72 70 70 73 74 71 69 67 66 66 64 60 57 56 55 54 53 52 51 47 41 36 28 24 25 26 27 26 24 24 24 26 26 26 26 24 22 24 28 30 29
26 28 28 27 26 27 30 34 36 37 39 39 41 45 47 47 47 49 56 59 57 55 54 51 49 51 50 48 47 47 48 47 45 45 47 50 51 50 52 56 59 63 66 69 68 66 63 61 61 62 64 67 69 70 73 74 71 69 69 71 73 71 68 67 67 65 61 56 53 52 52 52 50 49 46 42 35 27 17 13 16 19 22 23 24 25 25 27 26 26 26 24 21 21 22 24 26
25 25 26 25 24 25 28 32 34 36 39 39 42 47 49 49 48 52 57 57 55 56 55 53 51 51 51 49 50 51 51 49 48 48 49 51 52 51 53 57 60 63 66 70 70 67 64 62 61 63 66 69 70 71 74 74 72 70 68 68 70 70 67 66 65 61 57 54 51 49 48 47 46 43 39 34 26 18 10 9 14 19 22 24 25 26 27 27 26 25 24 23 22 21 20 20 22
25 24 24 23 24 24 25 29 32 37 41 39 40 46 50 51 49 53 56 55 56 56 55 53 52 54 53 49 53 54 52 50 50 51 52 53 54 53 54 58 61 63 66 70 72 70 67 64 63 66 67 68 69 70 73 74 72 70 67 64 65 66 64 62 61 58 55 52 48 46 44 42 41 37 31 25 18 11 9 10 16 20 23 24 25 26 25 25 25 24 23 21 22 22 20 18 18
23 22 23 23 24 24 25 28 32 36 38 36 36 41 47 48 47 52 55 53 56 57 55 53 52 54 53 49 52 55 53 51 50 52 53 54 55 55 57 61 63 66 67 69 73 73 71 68 66 68 67 67 66 67 69 70 69 68 65 62 62 61 59 57 57 55 52 50 47 43 41 40 37 31 26 19 12 8 9 11 16 20 22 23 25 25 24 25 24 24 23 20 20 21 20 19 17
21 21 22 23 23 24 24 25 27 30 32 35 35 37 44 46 46 52 54 53 57 57 54 53 51 52 51 49 50 52 52 51 51 53 54 54 55 57 60 63 64 68 69 70 72 73 73 71 68 68 68 66 65 64 64 66 66 65 64 62 61 58 57 56 56 54 50 48 46 43 41 38 32 26 21 14 10 10 12 15 17 19 21 22 24 24 25 24 23 23 22 19 19 20 20 20 19
19 22 22 22 22 23 23 22 22 24 27 34 36 36 42 48 49 51 52 52 55 54 51 52 50 48 49 50 49 48 50 51 52 54 55 56 57 60 63 64 64 68 70 70 71 72 72 71 68 67 67 65 64 62 63 64 64 63 62 60 57 56 55 54 53 51 48 46 44 42 38 32 26 21 16 14 16 17 18 22 23 21 21 22 23 23 24 23 22 22 21 19 18 20 20 20 19
19 21 21 21 22 22 22 22 22 22 23 28 31 32 39 48 50 47 48 50 49 47 46 48 48 46 47 46 45 45 48 50 53 54 56 58 58 60 63 63 64 67 69 70 71 72 72 70 68 67 66 64 63 63 63 63 62 62 60 56 53 52 50 49 48 47 45 45 42 37 30 25 20 16 16 20 22 22 22 25 25 23 23 22 23 23 22 22 21 20 20 19 18 19 20 20 18
19 21 22 21 21 22 24 27 25 22 24 26 24 26 35 46 46 40 40 42 41 41 42 43 45 45 45 43 43 45 46 49 52 54 57 60 59 59 61 61 63 66 69 71 72 73 72 70 68 67 67 66 64 64 64 62 62 60 57 54 52 50 47 45 45 44 43 40 35 28 23 19 16 17 21 22 23 22 22 22 22 23 24 24 24 23 22 21 19 17 17 17 17 18 21 20 17
18 20 19 18 21 24 28 31 27 24 27 27 23 23 29 37 38 34 35 38 37 38 38 39 41 44 45 43 43 45 46 49 53 54 57 60 60 60 60 62 64 66 68 71 71 72 72 69 67 67 67 67 66 66 64 62 62 59 56 55 54 49 44 43 42 40 38 32 26 21 18 15 15 19 22 23 23 23 22 19 17 19 22 23 23 23 21 17 14 11 11 12 13 17 21 20 17
15 18 17 18 22 24 28 31 28 27 28 25 23 24 28 32 32 31 33 37 38 36 34 35 39 43 45 44 44 45 47 50 53 55 57 60 62 62 61 62 65 66 68 71 71 71 71 70 67 66 67 67 66 65 64 62 61 58 56 57 54 46 41 39 38 35 29 24 19 16 15 15 18 20 22 23 23 23 22 17 11 11 19 23 23 21 18 14 11 9 9 11 14 18 21 20 18
14 15 17 20 20 20 25 29 26 26 26 21 21 24 29 32 30 29 32 35 36 33 31 34 37 41 45 45 45 45 46 50 54 56 57 60 63 63 63 64 66 67 68 70 72 72 72 71 67 65 66 66 64 64 63 61 60 58 57 57 51 43 39 37 34 29 22 17 14 15 17 18 20 20 22 23 22 22 19 13 10 12 18 21 20 18 17 15 13 12 13 14 16 19 19 18 19
14 14 14 15 15 16 21 24 23 23 22 18 19 22 28 32 30 29 31 31 33 32 31 33 36 41 46 48 48 48 48 51 55 56 58 60 64 64 65 66 68 67 68 71 73 72 71 69 65 64 64 63 63 64 62 61 60 60 58 54 47 40 36 33 28 21 17 15 14 17 20 20 20 21 22 22 22 22 17 12 15 18 19 20 18 17 18 17 16 16 17 17 16 17 16 15 16
12 14 12 11 13 14 17 19 19 20 18 18 21 26 29 32 31 30 30 31 34 34 33 35 37 42 47 49 49 49 50 53 56 57 59 61 64 66 66 66 68 69 70 73 74 72 69 67 65 65 62 62 63 63 62 61 60 59 56 49 40 35 33 28 22 16 14 14 14 18 20 21 21 22 22 22 21 21 17 16 19 21 21 21 19 18 19 17 17 18 19 19 18 17 17 16 16
12 12 12 12 13 12 15 17 16 17 16 17 24 30 30 30 32 33 34 37 41 41 40 41 44 47 50 50 51 51 51 53 57 59 60 62 64 65 65 65 68 70 71 75 75 72 69 66 65 65 61 61 63 61 59 59 59 57 53 45 37 32 29 23 17 12 10 11 15 19 20 21 21 22 21 21 20 20 18 19 22 21 22 22 20 21 20 18 17 19 19 19 19 20 19 18 17
13 12 13 12 13 13 13 15 16 17 17 19 26 32 31 33 37 39 40 43 46 46 46 48 51 53 53 53 54 54 53 54 58 61 62 63 64 64 66 68 70 72 74 76 75 71 69 67 66 63 60 60 61 59 58 57 56 53 48 41 33 28 22 17 13 9 9 11 15 18 20 21 21 21 20 19 18 19 19 20 23 22 22 23 22 21 20 19 18 19 19 19 20 20 19 19 19
13 13 13 12 13 13 12 14 15 16 19 24 31 36 36 38 39 39 40 44 46 47 48 50 52 53 55 55 55 55 54 56 59 62 63 65 66 66 68 69 69 72 75 76 74 71 69 67 64 62 60 60 59 58 57 56 53 50 44 36 28 21 16 14 10 9 11 15 17 17 18 20 21 19 19 18 17 18 19 20 22 23 23 22 22 21 21 20 20 20 20 20 21 21 20 20 20
13 13 13 12 13 13 12 13 13 14 19 26 33 38 40 40 41 39 40 43 45 47 49 49 50 52 53 53 53 55 54 55 58 61 63 65 66 67 67 66 67 71 73 73 73 70 68 65 63 62 60 60 61 59 56 53 50 46 38 29 21 16 14 13 10 11 15 19 20 18 17 19 20 19 19 18 17 17 18 20 21 22 23 22 23 22 22 22 22 21 21 22 22 21 21 22 21
13 14 13 13 13 13 12 13 12 12 17 24 34 40 41 40 41 42 41 42 44 46 47 49 50 52 52 52 52 53 54 55 57 60 62 63 64 66 67 64 64 69 71 70 70 70 67 64 62 62 60 61 63 60 53 50 47 40 30 22 18 15 13 10 10 13 15 16 18 18 19 21 21 20 21 19 18 18 17 18 19 20 22 22 23 23 23 24 23 22 22 22 22 21 20 22 22
14 14 14 14 13 13 13 14 14 13 13 19 29 38 41 41 43 44 43 42 43 46 48 51 53 53 55 56 54 55 57 57 58 59 60 60 62 64 64 62 63 68 68 67 68 67 63 61 61 61 59 59 61 56 50 46 41 33 24 19 17 16 14 10 9 12 13 14 16 18 19 21 21 21 21 19 19 20 18 17 17 17 19 21 23 24 24 24 23 23 22 21 21 20 20 21 22